CW8721 Weather Reports


time (UTC)temp
C
wind
direction
speed
KPH
gust
KPH
rain 1hr
cm
rain 24hr
cm
rain mn
cm
humidity
%
barometer
mb
20260502164051 19 246 3.2 11.3 0.00 0.00 0.00 19 1016.1
20260502163548 18 179 1.6 11.3 0.00 0.00 0.00 22 1016.1
20260502163050 18 163 3.2 11.3 0.00 0.00 0.00 23 1016.1
20260502162546 18 196 3.2 8.0 0.00 0.00 0.00 21 1016.2
20260502162044 18 159 3.2 11.3 0.00 0.00 0.00 24 1016.2
20260502161548 18 186 4.8 20.9 0.00 0.00 0.00 25 1016.2
20260502161041 17 205 3.2 14.5 0.00 0.00 0.00 26 1016.2
20260502160539 17 134 4.8 14.5 0.00 0.00 0.00 27 1016.3
20260502152026 15 92 0.0 11.3 0.00 0.00 0.00 37 1016.5
20260502151525 15 154 1.6 12.9 0.00 0.00 0.00 40 1016.5
20260502151026 15 140 3.2 12.9 0.00 0.00 0.00 41 1016.6
20260502150523 15 151 1.6 9.7 0.00 0.00 0.00 42 1016.6
20260502130558 6 360 0.0 0.0 0.00 0.00 0.00 60 1016.5
20260502123555 6 136 0.0 0.0 0.00 0.00 0.00 61 1016.4
20260502123056 6 136 0.0 0.0 0.00 0.00 0.00 62 1016.4
20260502122554 6 130 0.0 0.0 0.00 0.00 0.00 62 1016.4
20260502122055 6 130 0.0 0.0 0.00 0.00 0.00 62 1016.4
20260502121554 6 130 0.0 0.0 0.00 0.00 0.00 61 1016.4
20260502121054 6 130 0.0 0.0 0.00 0.00 0.00 60 1016.4
20260502120553 6 130 0.0 0.0 0.00 0.00 0.00 58 1016.4
20260502120109 7 132 0.0 0.0 0.00 0.00 0.00 58 1016.4
20260502115553 7 132 0.0 0.0 0.00 0.00 0.00 58 1016.3
20260502115051 7 131 0.0 0.0 0.00 0.00 0.00 58 1016.3
20260502114557 7 132 0.0 0.0 0.00 0.00 0.00 57 1016.4
20260502114051 7 360 0.0 3.2 0.00 0.00 0.00 57 1016.3
20260502113551 7 360 0.0 3.2 0.00 0.00 0.00 56 1016.3
20260502113051 7 360 0.0 3.2 0.00 0.00 0.00 56 1016.4
20260502112550 7 130 0.0 1.6 0.00 0.00 0.00 55 1016.4
20260502112050 7 360 0.0 1.6 0.00 0.00 0.00 54 1016.4
20260502111553 7 128 0.0 0.0 0.00 0.00 0.00 52 1016.5
20260502111050 8 128 0.0 0.0 0.00 0.00 0.00 50 1016.4
20260502110552 8 128 0.0 1.6 0.00 0.00 0.00 51 1016.4
20260502110049 7 129 0.0 1.6 0.00 0.00 0.00 53 1016.4
20260502105549 6 126 0.0 1.6 0.00 0.00 0.00 55 1016.4
20260502105047 6 126 0.0 0.0 0.00 0.00 0.00 56 1016.4
20260502104552 6 126 0.0 0.0 0.00 0.00 0.00 57 1016.5
20260502104047 6 126 0.0 0.0 0.00 0.00 0.00 57 1016.4
20260502103547 6 126 0.0 0.0 0.00 0.00 0.00 56 1016.4
20260502103047 6 126 0.0 0.0 0.00 0.00 0.00 56 1016.4
20260502102546 6 127 0.0 0.0 0.00 0.00 0.00 55 1016.4
20260502102047 6 128 0.0 0.0 0.00 0.00 0.00 55 1016.4
20260502101549 6 127 0.0 1.6 0.00 0.00 0.00 55 1016.4
20260502101045 6 128 0.0 1.6 0.00 0.00 0.00 56 1016.2
20260502100545 6 126 0.0 3.2 0.00 0.00 0.00 56 1016.3
20260502091041 6 123 0.0 4.8 0.00 0.00 0.00 56 1015.9
20260502090541 6 125 1.6 6.4 0.00 0.00 0.00 56 1016.0
20260502071022 11 168 0.0 1.6 0.00 0.00 0.00 39 1016.2
20260502070525 11 360 0.0 1.6 0.00 0.00 0.00 38 1016.2
20260502070024 11 168 0.0 1.6 0.00 0.00 0.00 37 1016.3
20260502065519 11 161 0.0 1.6 0.00 0.00 0.00 38 1016.3
20260502065018 11 161 0.0 1.6 0.00 0.00 0.00 39 1016.2
20260502064518 11 135 0.0 1.6 0.00 0.00 0.00 41 1016.2
20260502064016 10 259 0.0 1.6 0.00 0.00 0.00 43 1016.3
20260502063514 9 261 0.0 1.6 0.00 0.00 0.00 45 1016.3
20260502063014 8 261 0.0 3.2 0.00 0.00 0.00 47 1016.3
20260502062513 8 261 0.0 3.2 0.00 0.00 0.00 48 1016.2
20260502062011 8 261 0.0 0.0 0.00 0.00 0.00 48 1016.2
20260502061510 9 263 0.0 0.0 0.00 0.00 0.00 47 1016.1
20260502061009 9 263 0.0 0.0 0.00 0.00 0.00 47 1016.1
20260502060508 9 263 0.0 0.0 0.00 0.00 0.00 46 1016.1
20260502060009 9 263 0.0 0.0 0.00 0.00 0.00 47 1016.1
20260502055506 8 263 0.0 0.0 0.00 0.00 0.00 47 1016.1
20260502055010 8 263 0.0 0.0 0.00 0.00 0.00 47 1016.0
20260502054512 8 263 0.0 0.0 0.00 0.00 0.00 46 1016.0
20260502054006 9 263 0.0 0.0 0.00 0.00 0.00 47 1016.1
20260502053505 9 263 0.0 0.0 0.00 0.00 0.00 46 1016.0
20260502053005 9 263 0.0 0.0 0.00 0.00 0.00 45 1015.9
20260502052505 10 265 0.0 3.2 0.00 0.00 0.00 44 1016.0
20260502052005 10 265 1.6 3.2 0.00 0.00 0.00 43 1016.1
20260502051510 10 265 0.0 0.0 0.00 0.00 0.00 41 1016.0
20260502051006 11 265 0.0 0.0 0.00 0.00 0.00 38 1016.0
20260502050505 12 264 0.0 1.6 0.00 0.00 0.00 36 1015.8
20260502050004 12 264 0.0 1.6 0.00 0.00 0.00 38 1015.9
20260502045504 12 264 0.0 0.0 0.00 0.00 0.00 37 1016.0
20260502045004 12 264 0.0 0.0 0.00 0.00 0.00 36 1016.0
20260502044504 12 264 0.0 0.0 0.00 0.00 0.00 36 1015.9
20260502044004 12 264 0.0 0.0 0.00 0.00 0.00 36 1016.0
20260502043503 12 264 0.0 0.0 0.00 0.00 0.00 38 1016.0
20260502043003 11 264 0.0 0.0 0.00 0.00 0.00 41 1016.0
20260502042503 11 264 0.0 0.0 0.00 0.00 0.00 40 1015.8
20260502042003 11 264 0.0 1.6 0.00 0.00 0.00 40 1015.9
20260502041503 11 264 0.0 3.2 0.00 0.00 0.00 40 1015.8
20260502041002 11 264 0.0 3.2 0.00 0.00 0.00 38 1015.7
20260502040502 12 264 0.0 1.6 0.00 0.00 0.00 36 1015.7
20260502040003 12 263 0.0 1.6 0.00 0.00 0.00 36 1015.7
20260502035502 12 263 0.0 3.2 0.00 0.00 0.00 35 1015.7
20260502035002 13 263 0.0 3.2 0.00 0.00 0.00 33 1015.6
20260502034503 13 265 0.0 0.0 0.00 0.00 0.00 33 1015.6
20260502034002 13 265 0.0 0.0 0.00 0.00 0.00 33 1015.5
20260502033504 13 265 0.0 0.0 0.00 0.00 0.00 34 1015.4
20260502033002 13 265 0.0 0.0 0.00 0.00 0.00 34 1015.4
20260502032501 13 265 0.0 1.6 0.00 0.00 0.00 35 1015.3
20260502032001 13 265 0.0 1.6 0.00 0.00 0.00 34 1015.2
20260502031501 13 265 0.0 1.6 0.00 0.00 0.00 33 1015.3
20260502031001 13 265 0.0 1.6 0.00 0.00 0.00 33 1015.1
20260502030501 13 265 0.0 3.2 0.00 0.00 0.00 31 1015.0
20260502030101 13 265 0.0 6.4 0.00 0.00 0.00 29 1014.9
20260502025600 14 265 3.2 6.4 0.00 0.00 0.00 28 1015.0
20260502025102 14 294 1.6 8.0 0.00 0.00 0.00 27 1014.8
20260502024600 14 298 4.8 8.0 0.00 0.00 0.00 26 1014.8
20260502024100 14 270 1.6 9.7 0.00 0.00 0.00 25 1014.8
20260502023559 15 276 3.2 11.3 0.00 0.00 0.00 25 1014.8
20260502023101 15 275 6.4 14.5 0.00 0.00 0.00 25 1014.6
20260502022558 15 276 9.7 14.5 0.00 0.00 0.00 25 1014.7
20260502022101 15 236 9.7 14.5 0.00 0.00 0.00 25 1014.6
20260502021600 15 269 9.7 14.5 0.00 0.00 0.00 26 1014.5
20260502021101 15 280 8.0 14.5 0.00 0.00 0.00 25 1014.6
20260502020559 16 264 8.0 19.3 0.00 0.00 0.00 24 1014.5
20260502020109 16 240 12.9 19.3 0.00 0.00 0.00 23 1014.5
20260502015601 16 312 6.4 17.7 0.00 0.00 0.00 23 1014.6
20260502015102 16 269 11.3 17.7 0.00 0.00 0.00 22 1014.5
20260502014557 16 269 11.3 20.9 0.00 0.00 0.00 22 1014.4
20260502014158 16 254 8.0 22.5 0.00 0.00 0.00 23 1014.5
20260502013558 16 271 12.9 22.5 0.00 0.00 0.00 24 1014.4
20260502013057 16 270 16.1 22.5 0.00 0.00 0.00 24 1014.4
20260502012556 16 315 9.7 19.3 0.00 0.00 0.00 23 1014.4
20260502012056 16 303 11.3 24.1 0.00 0.00 0.00 23 1014.4
20260502011557 16 262 11.3 24.1 0.00 0.00 0.00 23 1014.5
20260502011054 17 284 12.9 22.5 0.00 0.00 0.00 24 1014.4
20260502010559 17 313 9.7 22.5 0.00 0.00 0.00 25 1014.4
20260502010057 17 254 9.7 25.7 0.00 0.00 0.00 26 1014.4
20260502005557 17 256 11.3 25.7 0.00 0.00 0.00 26 1014.5
20260502005054 17 284 14.5 24.1 0.00 0.00 0.00 26 1014.4
20260502004556 17 279 12.9 22.5 0.00 0.00 0.00 25 1014.4
20260502004054 17 275 11.3 22.5 0.00 0.00 0.00 25 1014.3
20260502003556 17 276 12.9 22.5 0.00 0.00 0.00 26 1014.3
20260502003053 17 257 12.9 22.5 0.00 0.00 0.00 25 1014.3
20260502002552 17 316 11.3 19.3 0.00 0.00 0.00 26 1014.4
20260502002052 17 288 8.0 20.9 0.00 0.00 0.00 25 1014.5
20260502001552 17 317 11.3 20.9 0.00 0.00 0.00 27 1014.5
20260502001052 17 319 16.1 20.9 0.00 0.00 0.00 26 1014.5
20260502000551 18 270 12.9 20.9 0.00 0.00 0.00 25 1014.5
20260502000051 18 324 9.7 25.7 0.00 0.00 0.00 27 1014.5
20260501235554 18 290 17.7 25.7 0.00 0.00 0.00 27 1014.6
20260501235053 18 304 9.7 24.1 0.00 0.00 0.00 25 1014.5
20260501234556 18 300 9.7 22.5 0.00 0.00 0.00 25 1014.5
20260501234050 18 327 12.9 22.5 0.00 0.00 0.00 24 1014.6
20260501233550 18 298 11.3 20.9 0.00 0.00 0.00 25 1014.5
20260501233052 18 302 11.3 27.4 0.00 0.00 0.00 24 1014.6
20260501232549 18 252 8.0 27.4 0.00 0.00 0.00 26 1014.5
20260501232052 18 254 12.9 25.7 0.00 0.00 0.00 24 1014.6
20260501231557 18 279 12.9 25.7 0.00 0.00 0.00 24 1014.7
20260501231048 18 257 12.9 24.1 0.00 0.00 0.00 25 1014.6
20260501230548 18 284 14.5 22.5 0.00 0.00 0.00 24 1014.6
20260501230048 18 284 12.9 22.5 0.00 0.00 0.00 24 1014.6
20260501225548 18 329 16.1 25.7 0.00 0.00 0.00 25 1014.6
20260501225048 18 263 12.9 25.7 0.00 0.00 0.00 24 1014.8
20260501224547 18 306 14.5 22.5 0.00 0.00 0.00 24 1014.8
20260501224046 18 304 12.9 22.5 0.00 0.00 0.00 24 1014.8
20260501223545 18 290 14.5 25.7 0.00 0.00 0.00 25 1014.9
20260501223045 18 315 12.9 25.7 0.00 0.00 0.00 25 1015.0
20260501222545 18 324 17.7 25.7 0.00 0.00 0.00 26 1015.1
20260501222046 18 325 14.5 24.1 0.00 0.00 0.00 25 1015.1
20260501221545 18 317 9.7 27.4 0.00 0.00 0.00 24 1015.0
20260501221144 18 9 16.1 27.4 0.00 0.00 0.00 24 1015.1
20260501220544 18 311 11.3 24.1 0.00 0.00 0.00 25 1015.1
20260501220044 18 251 9.7 25.7 0.00 0.00 0.00 25 1015.2
20260501215544 18 307 16.1 27.4 0.00 0.00 0.00 24 1015.3
20260501215044 18 319 16.1 27.4 0.00 0.00 0.00 23 1015.3
20260501214556 18 308 16.1 25.7 0.00 0.00 0.00 24 1015.3
20260501214043 18 302 16.1 25.7 0.00 0.00 0.00 25 1015.4
20260501213541 18 316 16.1 29.0 0.00 0.00 0.00 24 1015.4
20260501213049 18 271 12.9 29.0 0.00 0.00 0.00 24 1015.5
20260501212541 18 309 12.9 25.7 0.00 0.00 0.00 25 1015.5
20260501212042 18 330 11.3 27.4 0.00 0.00 0.00 26 1015.6
20260501211541 18 304 16.1 27.4 0.00 0.00 0.00 24 1015.6
20260501211041 17 251 14.5 25.7 0.00 0.00 0.00 25 1015.6
20260501210540 18 319 14.5 27.4 0.00 0.00 0.00 26 1015.7
20260501210040 18 274 12.9 27.4 0.00 0.00 0.00 23 1015.7
20260501205540 18 286 16.1 25.7 0.00 0.00 0.00 24 1015.8
20260501205040 18 255 12.9 25.7 0.00 0.00 0.00 26 1016.0
20260501204540 18 306 12.9 32.2 0.00 0.00 0.00 27 1016.0
20260501204040 18 300 24.1 32.2 0.00 0.00 0.00 26 1016.0
20260501203539 18 309 14.5 29.0 0.00 0.00 0.00 27 1016.1
20260501203038 18 297 17.7 29.0 0.00 0.00 0.00 27 1016.0
20260501202538 18 255 16.1 24.1 0.00 0.00 0.00 25 1016.0
20260501202038 18 306 14.5 25.7 0.00 0.00 0.00 24 1016.1
20260501201545 18 306 8.0 29.0 0.00 0.00 0.00 28 1016.0
20260501201038 18 324 12.9 29.0 0.00 0.00 0.00 27 1016.1
20260501200537 18 253 9.7 17.7 0.00 0.00 0.00 25 1016.0
20260501200037 18 304 6.4 17.7 0.00 0.00 0.00 25 1016.1
20260501195537 17 311 4.8 27.4 0.00 0.00 0.00 25 1016.2
20260501195037 17 276 14.5 27.4 0.00 0.00 0.00 27 1016.2
20260501194541 17 251 8.0 24.1 0.00 0.00 0.00 25 1016.1
20260501194036 17 265 9.7 22.5 0.00 0.00 0.00 26 1016.2
20260501193537 18 336 14.5 22.5 0.00 0.00 0.00 27 1016.3
20260501193035 17 334 11.3 20.9 0.00 0.00 0.00 26 1016.2
20260501192534 17 317 11.3 22.5 0.00 0.00 0.00 26 1016.3
20260501192034 17 325 11.3 22.5 0.00 0.00 0.00 29 1016.4
20260501191534 17 265 9.7 27.4 0.00 0.00 0.00 26 1016.3
20260501191034 17 304 16.1 27.4 0.00 0.00 0.00 27 1016.4
20260501190533 17 287 9.7 22.5 0.00 0.00 0.00 27 1016.4
20260501190033 17 340 9.7 20.9 0.00 0.00 0.00 28 1016.6
20260501185633 17 300 9.7 17.7 0.00 0.00 0.00 28 1016.6
20260501185031 17 332 11.3 24.1 0.00 0.00 0.00 28 1016.6
20260501184530 17 322 12.9 24.1 0.00 0.00 0.00 28 1016.6
20260501184030 17 355 8.0 19.3 0.00 0.00 0.00 26 1016.7
20260501183529 17 306 6.4 24.1 0.00 0.00 0.00 25 1016.8
20260501183028 17 309 4.8 24.1 0.00 0.00 0.00 28 1016.8
20260501182526 17 280 8.0 22.5 0.00 0.00 0.00 25 1016.7
20260501182026 17 313 11.3 19.3 0.00 0.00 0.00 27 1016.8
20260501181529 16 292 3.2 14.5 0.00 0.00 0.00 26 1016.9
20260501181025 16 306 3.2 17.7 0.00 0.00 0.00 25 1016.9
20260501180524 17 334 6.4 17.7 0.00 0.00 0.00 26 1016.9
20260501180033 17 349 11.3 17.7 0.00 0.00 0.00 26 1016.9
20260501175522 17 127 6.4 17.7 0.00 0.00 0.00 28 1016.9
20260501175021 16 132 1.6 16.1 0.00 0.00 0.00 26 1016.9
20260501174520 17 315 6.4 16.1 0.00 0.00 0.00 25 1017.0
20260501174019 16 319 4.8 14.5 0.00 0.00 0.00 26 1017.1
20260501173517 17 36 8.0 20.9 0.00 0.00 0.00 26 1017.1
20260501173016 17 23 11.3 20.9 0.00 0.00 0.00 27 1017.1
20260501172514 16 282 4.8 17.7 0.00 0.00 0.00 30 1017.1
20260501172014 16 25 6.4 20.9 0.00 0.00 0.00 28 1017.2
20260501171524 16 24 11.3 20.9 0.00 0.00 0.00 28 1017.2
20260501171011 16 40 8.0 19.3 0.00 0.00 0.00 29 1017.2
20260501170510 16 9 8.0 19.3 0.00 0.00 0.00 29 1017.3
20260501170009 16 319 12.9 17.7 0.00 0.00 0.00 28 1017.3